TimeMST,TemperatureF,Dew PointF,Humidity,Sea Level PressureIn,VisibilityMPH,Wind Direction,Wind SpeedMPH,Gust SpeedMPH,PrecipitationIn,Events,Conditions,WindDirDegrees,DateUTC
12:53 AM,21.9,12.9,68,30.17,10.0,WNW,15.0,20.7,N/A,,Overcast,300,2013-01-02 07:53:00
1:53 AM,24.1,17.1,75,30.18,10.0,WNW,12.7,-,N/A,,Overcast,290,2013-01-02 08:53:00
2:35 AM,26.6,21.2,80,30.07,10.0,WNW,16.1,21.9,N/A,,Overcast,300,2013-01-02 09:35:00
2:53 AM,27.0,21.0,78,30.17,10.0,WNW,16.1,24.2,N/A,,Overcast,300,2013-01-02 09:53:00
3:15 AM,26.6,23.0,86,30.07,3.0,WNW,16.1,24.2,0.00,Snow,Light Snow,300,2013-01-02 10:15:00
3:24 AM,26.6,23.0,86,30.07,2.5,NW,17.3,24.2,0.00,Snow,Light Snow,310,2013-01-02 10:24:00
3:48 AM,26.6,23.0,86,30.07,4.0,NW,13.8,-,0.00,Snow,Light Snow,310,2013-01-02 10:48:00
3:53 AM,26.1,23.0,88,30.19,5.0,NW,15.0,-,0.00,Snow,Light Snow,310,2013-01-02 10:53:00
4:53 AM,27.0,24.1,89,30.20,6.0,NW,15.0,-,0.00,,Overcast,320,2013-01-02 11:53:00
5:34 AM,26.6,24.8,93,30.09,2.5,NW,17.3,24.2,0.00,Snow,Light Snow,320,2013-01-02 12:34:00
5:53 AM,27.0,24.1,89,30.23,2.5,NW,16.1,25.3,0.00,Snow,Light Snow,320,2013-01-02 12:53:00
6:01 AM,26.6,24.8,93,30.10,4.0,NW,15.0,23.0,0.00,Snow,Light Snow,320,2013-01-02 13:01:00
6:53 AM,28.0,24.1,85,30.25,6.0,NW,15.0,-,0.00,Snow,Light Snow,310,2013-01-02 13:53:00
7:13 AM,28.4,24.8,86,30.12,2.0,NW,15.0,-,0.00,Snow,Light Snow,320,2013-01-02 14:13:00
7:33 AM,28.4,24.8,86,30.12,6.0,NW,15.0,-,0.00,,Overcast,310,2013-01-02 14:33:00
7:53 AM,28.0,24.1,85,30.25,10.0,NW,16.1,21.9,0.00,,Overcast,310,2013-01-02 14:53:00
8:53 AM,28.0,21.0,75,30.26,10.0,NW,15.0,-,N/A,,Mostly Cloudy,310,2013-01-02 15:53:00
9:53 AM,30.0,21.0,69,30.27,10.0,WNW,13.8,-,N/A,,Clear,300,2013-01-02 16:53:00
10:53 AM,30.9,21.0,67,30.25,10.0,NW,20.7,28.8,N/A,,Partly Cloudy,310,2013-01-02 17:53:00
11:53 AM,30.9,21.9,69,30.23,10.0,NW,18.4,25.3,N/A,,Overcast,320,2013-01-02 18:53:00
12:53 PM,30.9,21.0,67,30.22,10.0,NNW,18.4,26.5,N/A,,Mostly Cloudy,330,2013-01-02 19:53:00
1:53 PM,32.0,19.9,61,30.20,10.0,NNW,16.1,24.2,N/A,,Clear,330,2013-01-02 20:53:00
2:53 PM,32.0,19.0,59,30.21,10.0,NNW,16.1,-,N/A,,Clear,330,2013-01-02 21:53:00
3:53 PM,30.2,17.6,60,30.15,10.0,NW,17.3,24.2,N/A,,Clear,320,2013-01-02 22:53:00
4:53 PM,26.1,16.0,66,30.27,10.0,NW,9.2,-,N/A,,Clear,310,2013-01-02 23:53:00
5:53 PM,21.0,12.9,71,30.30,10.0,WNW,9.2,-,N/A,,Clear,290,2013-01-03 00:53:00
6:53 PM,19.9,10.9,68,30.32,10.0,WNW,8.1,-,N/A,,Clear,300,2013-01-03 01:53:00
7:53 PM,16.0,9.0,74,30.34,10.0,WNW,6.9,-,N/A,,Clear,300,2013-01-03 02:53:00
8:53 PM,21.0,14.0,74,30.36,10.0,NW,11.5,-,N/A,,Overcast,320,2013-01-03 03:53:00
9:53 PM,21.9,17.1,82,30.38,10.0,NNW,9.2,-,N/A,,Overcast,330,2013-01-03 04:53:00
10:53 PM,21.9,16.0,78,30.39,10.0,NNW,10.4,-,N/A,,Overcast,330,2013-01-03 05:53:00
11:53 PM,21.0,16.0,81,30.40,10.0,NNW,9.2,-,N/A,,Overcast,330,2013-01-03 06:53:00